TimeEST,TemperatureF,Dew PointF,Humidity,Sea Level PressureIn,VisibilityMPH,Wind Direction,Wind SpeedMPH,Gust SpeedMPH,PrecipitationIn,Events,Conditions,WindDirDegrees,DateUTC
12:15 AM,9.3,1.9,72,30.08,10.0,WNW,20.7,25.3,N/A,,Mostly Cloudy,300,2013-02-01 05:15:00
12:35 AM,8.6,0.5,70,30.08,10.0,WNW,18.4,26.5,N/A,,Mostly Cloudy,300,2013-02-01 05:35:00
12:55 AM,8.2,0.9,72,30.09,5.0,WNW,24.2,28.8,N/A,,Haze,290,2013-02-01 05:55:00
1:15 AM,7.9,1.2,74,30.10,7.0,WNW,21.9,31.1,N/A,,Mostly Cloudy,290,2013-02-01 06:15:00
1:35 AM,7.5,-0.0,71,30.11,7.0,WNW,24.2,27.6,N/A,,Scattered Clouds,290,2013-02-01 06:35:00
1:55 AM,7.2,-0.0,72,30.12,5.0,West,25.3,29.9,N/A,,Haze,280,2013-02-01 06:55:00
2:15 AM,7.0,-0.2,72,30.13,7.0,West,24.2,29.9,N/A,,Mostly Cloudy,280,2013-02-01 07:15:00
2:35 AM,6.6,-0.4,73,30.15,10.0,West,23.0,31.1,N/A,,Mostly Cloudy,280,2013-02-01 07:35:00
2:55 AM,6.3,-1.3,71,30.16,4.0,West,24.2,29.9,N/A,Snow,Light Snow,280,2013-02-01 07:55:00
3:15 AM,5.9,-1.5,72,30.17,4.0,West,21.9,29.9,N/A,Snow,Light Snow,280,2013-02-01 08:15:00
3:35 AM,5.9,-1.5,72,30.18,2.5,West,23.0,31.1,N/A,Snow,Light Snow,280,2013-02-01 08:35:00
3:55 AM,5.7,-1.3,73,30.19,3.0,West,21.9,29.9,N/A,Snow,Light Snow,280,2013-02-01 08:55:00
4:15 AM,5.5,-1.5,73,30.20,10.0,West,24.2,33.4,N/A,,Mostly Cloudy,280,2013-02-01 09:15:00
4:35 AM,5.4,-2.0,72,30.21,4.0,West,25.3,31.1,N/A,,Haze,280,2013-02-01 09:35:00
4:55 AM,5.0,-2.2,72,30.21,7.0,West,19.6,-,N/A,,Scattered Clouds,280,2013-02-01 09:55:00
5:15 AM,4.8,-2.2,73,30.22,3.0,WNW,23.0,28.8,N/A,Snow,Light Snow,290,2013-02-01 10:15:00
5:35 AM,4.6,-2.6,72,30.23,5.0,WNW,19.6,25.3,N/A,,Haze,290,2013-02-01 10:35:00
5:55 AM,4.6,-2.2,73,30.24,4.0,WNW,18.4,25.3,N/A,Snow,Light Snow,290,2013-02-01 10:55:00
6:15 AM,4.5,-2.4,73,30.25,4.0,WNW,19.6,24.2,N/A,Snow,Light Snow,300,2013-02-01 11:15:00
6:35 AM,4.1,-3.1,72,30.26,2.0,WNW,17.3,24.2,N/A,Snow,Light Snow,290,2013-02-01 11:35:00
6:55 AM,4.1,-3.1,72,30.27,4.0,West,20.7,-,N/A,Snow,Light Snow,280,2013-02-01 11:55:00
7:15 AM,4.1,-2.9,73,30.28,10.0,West,18.4,-,N/A,,Mostly Cloudy,280,2013-02-01 12:15:00
7:35 AM,3.9,-3.6,71,30.29,5.0,WNW,18.4,-,N/A,Snow,Light Snow,290,2013-02-01 12:35:00
7:55 AM,3.9,-3.6,71,30.30,7.0,WNW,16.1,-,N/A,,Mostly Cloudy,290,2013-02-01 12:55:00
8:15 AM,3.9,-3.1,73,30.30,2.5,West,16.1,19.6,N/A,Snow,Light Snow,280,2013-02-01 13:15:00
8:35 AM,4.1,-3.3,71,30.31,3.0,West,17.3,21.9,N/A,Snow,Light Snow,270,2013-02-01 13:35:00
9:15 AM,4.6,-3.1,70,30.33,5.0,West,18.4,-,N/A,,Haze,280,2013-02-01 14:15:00
9:35 AM,5.0,-2.9,70,30.33,4.0,West,15.0,-,N/A,,Haze,280,2013-02-01 14:35:00
10:15 AM,5.7,-2.0,70,30.34,4.0,West,15.0,-,N/A,,Haze,280,2013-02-01 15:15:00
10:35 AM,6.4,-1.5,70,30.35,2.5,West,13.8,-,N/A,,Haze,280,2013-02-01 15:35:00
10:55 AM,6.8,-1.5,69,30.36,4.0,West,12.7,-,N/A,,Haze,270,2013-02-01 15:55:00
11:15 AM,7.7,-0.4,70,30.36,7.0,West,17.3,-,N/A,,Mostly Cloudy,280,2013-02-01 16:15:00
11:35 AM,8.1,-0.4,68,30.37,3.0,West,13.8,21.9,N/A,Snow,Light Snow,270,2013-02-01 16:35:00
11:55 AM,8.6,-0.0,68,30.37,7.0,West,11.5,20.7,N/A,,Overcast,280,2013-02-01 16:55:00
12:15 PM,8.6,-0.2,67,30.37,7.0,West,12.7,19.6,N/A,,Overcast,260,2013-02-01 17:15:00
12:35 PM,9.9,1.2,68,30.36,10.0,West,13.8,-,N/A,,Overcast,270,2013-02-01 17:35:00
12:55 PM,9.9,1.0,68,30.36,10.0,West,15.0,-,N/A,,Mostly Cloudy,280,2013-02-01 17:55:00
1:15 PM,10.0,1.2,68,30.36,5.0,West,15.0,21.9,N/A,,Haze,270,2013-02-01 18:15:00
1:35 PM,10.9,2.1,68,30.35,7.0,West,15.0,20.7,N/A,,Overcast,270,2013-02-01 18:35:00
1:55 PM,11.3,2.7,68,30.34,3.0,West,12.7,-,N/A,Snow,Light Snow,270,2013-02-01 18:55:00
2:15 PM,11.5,3.0,69,30.34,7.0,West,15.0,-,N/A,,Overcast,270,2013-02-01 19:15:00
2:35 PM,12.0,2.8,67,30.33,7.0,WSW,13.8,-,N/A,,Overcast,250,2013-02-01 19:35:00
2:55 PM,12.6,3.0,66,30.34,4.0,WSW,16.1,-,N/A,,Haze,250,2013-02-01 19:55:00
3:15 PM,12.9,3.0,65,30.33,2.0,West,15.0,-,N/A,Snow,Light Snow,260,2013-02-01 20:15:00
3:35 PM,12.9,3.2,65,30.34,2.0,WSW,13.8,20.7,N/A,,Haze,250,2013-02-01 20:35:00
3:55 PM,12.9,3.6,66,30.33,4.0,West,18.4,-,N/A,Snow,Light Snow,260,2013-02-01 20:55:00
4:15 PM,13.1,4.1,67,30.32,7.0,West,15.0,-,N/A,Snow,Light Snow,260,2013-02-01 21:15:00
4:35 PM,13.3,3.9,66,30.32,2.0,West,13.8,-,N/A,Snow,Light Snow,260,2013-02-01 21:35:00
4:55 PM,13.8,3.7,64,30.32,2.0,WSW,15.0,23.0,N/A,Snow,Light Snow,250,2013-02-01 21:55:00
5:15 PM,14.0,3.7,64,30.31,10.0,WSW,11.5,-,N/A,,Overcast,250,2013-02-01 22:15:00
5:35 PM,14.0,4.1,65,30.31,10.0,WSW,11.5,-,N/A,,Overcast,240,2013-02-01 22:35:00
5:55 PM,14.0,4.3,65,30.31,7.0,WSW,12.7,-,N/A,,Overcast,240,2013-02-01 22:55:00
6:15 PM,13.8,4.1,65,30.32,10.0,WSW,12.7,-,N/A,,Mostly Cloudy,240,2013-02-01 23:15:00
6:35 PM,13.6,3.9,65,30.32,10.0,WSW,12.7,-,N/A,,Mostly Cloudy,240,2013-02-01 23:35:00
6:55 PM,14.0,4.6,66,30.31,10.0,SW,13.8,-,N/A,,Overcast,230,2013-02-01 23:55:00
7:15 PM,13.8,5.0,68,30.31,10.0,SW,9.2,-,N/A,,Scattered Clouds,230,2013-02-02 00:15:00
7:35 PM,13.6,5.0,68,30.31,10.0,SW,6.9,-,N/A,,Scattered Clouds,230,2013-02-02 00:35:00
7:55 PM,13.1,5.0,70,30.30,7.0,SW,8.1,-,N/A,,Scattered Clouds,220,2013-02-02 00:55:00
8:15 PM,12.7,4.8,71,30.30,10.0,SSW,6.9,-,N/A,,Clear,210,2013-02-02 01:15:00
8:35 PM,12.6,4.8,71,30.31,10.0,SW,8.1,-,N/A,,Clear,220,2013-02-02 01:35:00
8:55 PM,12.7,5.0,71,30.31,10.0,SW,11.5,-,N/A,,Clear,220,2013-02-02 01:55:00
9:15 PM,13.1,5.0,70,30.30,10.0,SW,10.4,-,N/A,,Clear,220,2013-02-02 02:15:00
9:35 PM,13.3,5.5,71,30.30,10.0,SW,10.4,-,N/A,,Clear,220,2013-02-02 02:35:00
9:55 PM,13.6,5.7,71,30.29,10.0,SW,13.8,-,N/A,,Clear,220,2013-02-02 02:55:00
10:15 PM,13.5,5.9,72,30.29,7.0,SSW,11.5,-,N/A,Snow,Light Snow,210,2013-02-02 03:15:00
10:35 PM,13.6,5.9,71,30.28,10.0,SSW,12.7,-,N/A,,Clear,210,2013-02-02 03:35:00
10:55 PM,13.8,5.9,71,30.27,7.0,SSW,15.0,-,N/A,Snow,Light Snow,210,2013-02-02 03:55:00
11:15 PM,14.2,6.1,70,30.26,7.0,SSW,10.4,-,N/A,,Clear,210,2013-02-02 04:15:00
11:35 PM,14.5,6.6,71,30.26,7.0,SSW,15.0,18.4,N/A,,Clear,210,2013-02-02 04:35:00
11:55 PM,14.7,7.0,71,30.25,7.0,SW,12.7,18.4,N/A,Snow,Light Snow,220,2013-02-02 04:55:00